Location: Hall+in+Tirol
(47.2830°N, 11.5170°E)
Time: 08:59:08
(UTC+02:00)

Daily predictions for brighter satellites

Satellite Brightness Start Highest point End
(mag) Time Altitude Azimuth Time Altitude Azimuth Time Altitude Azimuth
Meteor 2-15 Rocket 4.5 20:20:33 10° N 20:26:40 79° E 20:32:44 10° SSE
Meteor 2-14 Rocket 4.5 20:22:27 10° S 20:28:35 79° E 20:34:45 10° NNE
Helios 1A 4.0 20:25:05 10° S 20:29:10 51° W 20:33:17 10° NNW
Cosmos 1939 Rocket 4.4 20:26:31 10° ESE 20:29:40 21° ENE 20:32:50 10° NNE
Cosmos 1697 Rocket 3.6 20:28:23 10° SSE 20:33:01 27° ESE 20:37:40 10° NE
Cosmos 1461 4.0 20:31:25 10° NW 20:35:17 42° WSW 20:39:01 10° S
Cosmos 1515 4.3 20:33:40 10° N 20:37:19 39° ENE 20:40:56 10° SE
NOSS 2-1 (D) 4.2 20:34:01 10° SW 20:37:56 60° NW 20:42:37 10° NE
BREEZE-M TANK 4.1 20:20:25 10° W 20:38:32 72° SSW 20:42:41 10° ESE
NOSS 2-1 (C) 4.2 20:35:03 10° SW 20:38:58 60° NW 20:43:39 10° NE
Cosmos 2208 Rocket 4.1 20:34:03 10° SSW 20:39:23 85° ESE 20:44:51 10° NNE
Cosmos 2123 Rocket 4.1 20:35:43 10° N 20:41:56 86° W 20:48:06 10° S
Cosmos 2278 3.7 20:36:24 10° SSW 20:42:04 78° ESE 20:47:48 10° NNE
Iridium 4 Rocket 3.6 20:37:48 10° N 20:42:46 48° E 20:47:16 10° SSE
Cosmos 2298 Rocket 4.1 20:37:52 10° NNW 20:43:10 64° ENE 20:48:27 10° SSE
Cosmos 1937 Rocket 3.9 20:40:50 10° NNW 20:45:55 46° ENE 20:51:01 10° SE
Envisat 3.8 20:43:09 10° SE 20:47:41 34° ENE 20:52:16 10° N
USA 186 1.5 20:46:18 10° SSE 20:49:20 88° E 20:52:10 10° NNW
ATLAS CENTAUR R/B 4.3 20:46:00 10° W 20:50:00 24° NW 20:53:54 10° NNE
RESURS DK-1 2.7 20:48:04 10° NNW 20:52:07 50° ENE 20:55:51 12° SE
Cosmos 1570 Rocket 4.4 20:47:37 10° SSW 20:52:54 71° WNW 20:58:11 10° NNE
Cosmos 1626 Rocket 3.5 20:50:29 10° N 20:54:55 86° ENE 20:59:18 10° S
H-2A R/B 3.2 20:52:11 12° ESE 20:55:11 25° ENE 20:58:36 10° N
Cosmos 1743 4.0 20:52:58 10° SE 20:56:04 23° E 20:59:12 10° NE
Cosmos 1980 Rocket 3.1 20:51:52 10° SSE 20:56:26 26° ESE 21:01:01 10° NE
Cosmos 2369 3.7 20:50:47 10° SSW 20:56:29 88° ESE 21:02:14 10° NNE
YAOGAN 11 4.3 20:54:37 10° SSE 20:59:01 56° ENE 21:03:23 10° N
Cosmos 1455 Rocket 3.8 20:58:19 10° SSW 21:02:35 56° WNW 21:06:54 10° N
Cosmos 2084 3.7 20:58:36 10° NW 21:02:36 64° SW 21:06:41 11° SSE
Lacrosse 5 1.9 20:58:41 10° NW 21:03:47 82° SW 21:08:04 14° SE
Cosmos 1602 Rocket 3.8 21:00:06 10° NNW 21:04:35 77° W 21:08:59 10° S
H-2A R/B 4.1 21:05:24 10° ENE 21:06:40 11° NE 21:07:55 10° NE
Cosmos 2150 Rocket 4.0 21:03:49 10° NNW 21:09:01 89° ENE 21:14:11 10° SSE
Tiangong 1 2.2 21:06:39 10° WSW 21:09:26 30° S 21:10:57 19° SE
ERS-1 Rocket 2.9 21:08:40 10° SSE 21:13:39 71° ENE 21:18:41 10° N
SPOT 5 3.6 21:12:21 17° SE 21:15:43 37° ENE 21:20:05 10° N
USA 215 4.0 21:09:35 10° E 21:15:44 45° NNE 21:21:54 10° NW
Cosmos 1153 Rocket 4.4 21:09:45 10° S 21:15:56 84° E 21:22:07 10° N
Cosmos 1656 3.6 21:12:04 10° SSW 21:17:40 77° ESE 21:23:14 10° NNE
Cosmos 2263 Rocket 3.8 21:14:52 10° N 21:19:03 21° NE 21:22:23 13° E
H-2A R/B 4.4 21:17:36 10° SSW 21:21:13 36° W 21:24:53 10° NNW
Cosmos 2227 Rocket 3.9 21:17:30 10° NW 21:22:26 31° WSW 21:27:19 10° SSW
Cosmos 1842 4.3 21:19:48 10° NNE 21:23:13 28° ENE 21:24:28 23° ESE
Cosmos 1898 Rocket 3.9 21:20:38 10° NNW 21:25:54 64° WSW 21:31:05 10° S
Cosmos 1763 Rocket 4.0 21:21:22 10° SSE 21:25:57 35° ESE 21:30:33 10° NE
Cosmos 1975 3.6 21:23:55 10° SSW 21:27:58 57° WNW 21:32:02 10° N
Cosmos 2322 Rocket 3.5 21:30:00 19° E 21:30:00 19° E 21:33:38 10° ENE
SJ-11-01 4.5 21:26:50 10° S 21:31:31 74° WSW 21:36:13 10° NNW
Lacrosse 5 rocket 3.6 21:29:51 10° W 21:31:47 14° WSW 21:33:41 10° SSW
Cosmos 1802 Rocket 4.1 21:25:44 10° S 21:31:59 59° E 21:38:18 10° NNE
Cosmos 1125 Rocket 4.2 21:27:10 10° N 21:32:00 37° ENE 21:34:31 23° ESE
Meteor 1-21 4.3 21:29:26 10° N 21:35:13 69° ENE 21:39:35 18° SSE
Cosmos 2058 Rocket 3.9 21:34:46 27° ESE 21:36:09 32° E 21:40:10 10° NNE
Cosmos 2297 Rocket 3.8 21:32:38 10° NW 21:37:36 32° WSW 21:42:34 10° SSW
PSLV R/B 4.0 21:41:02 33° ENE 21:41:06 33° ENE 21:43:54 10° N
Cosmos 1606 Rocket 3.7 21:38:14 19° SSE 21:41:10 54° E 21:45:31 10° NNE
Cosmos 1666 3.4 21:41:05 32° E 21:41:20 32° E 21:44:46 10° NNE
Terra 3.6 21:40:20 15° ENE 21:41:32 17° ENE 21:44:29 10° NNE
Cosmos 2016 Rocket 4.0 21:36:54 10° S 21:42:53 59° E 21:48:59 10° NNE
Cosmos 468 Rocket 4.0 21:37:49 10° SSW 21:42:56 85° WNW 21:48:07 10° NNE
Cosmos 2227 4.2 21:40:25 10° NNW 21:46:13 85° ENE 21:49:36 26° SSE
Cosmos 841 Rocket 3.6 21:44:05 10° S 21:49:05 50° ESE 21:54:07 10° NNE
MetOp-A 4.1 21:48:20 26° SSE 21:51:25 71° ENE 21:56:46 10° N
Cosmos 1500 4.3 21:48:49 10° SSW 21:52:25 43° WNW 21:56:04 10° N
Cosmos 1814 Rocket 4.1 21:48:58 10° SSW 21:54:18 81° WNW 21:59:38 10° NNE
Cosmos 2173 Rocket 4.0 21:48:47 10° S 21:55:09 86° W 22:01:32 10° N
CZ-4 SHROUD 3.7 21:56:38 44° ENE 21:56:38 44° ENE 21:59:23 10° N
Cosmos 1340 3.0 21:55:14 10° NNW 21:59:00 62° W 22:00:44 29° S
YAOGAN 6 2.5 21:58:15 51° SE 21:59:01 71° ENE 22:02:46 10° N
BREEZE-M DEB (TANK) 4.1 21:57:07 10° WNW 22:00:56 71° SSW 22:06:42 27° SE
Cosmos 1726 Rocket 3.4 22:02:04 28° S 22:04:18 80° E 22:08:45 10° NNE
Cosmos 1939 Rocket 4.1 22:01:15 15° SSW 22:04:21 41° W 22:08:20 10° NNW
ASTEX 1 3.3 21:59:52 10° N 22:04:54 75° E 22:07:29 29° S
Cosmos 2100 Rocket 4.4 22:03:56 10° SSW 22:10:09 63° WNW 22:16:20 10° N
Cosmos 1864 Rocket 4.4 22:07:48 28° SSE 22:11:07 64° E 22:17:11 10° NNE
Nimbus 7 Rocket 4.4 22:05:45 10° NNE 22:11:51 86° ESE 22:17:56 10° SSW
Cosmos 372 Rocket 4.3 22:08:42 10° NNW 22:13:42 50° ENE 22:14:52 42° ESE
Cosmos 1697 Rocket 3.4 22:11:08 10° SW 22:16:39 54° WNW 22:22:13 10° NNE
Tsikada Rocket 4.0 22:10:19 10° N 22:16:47 82° E 22:19:54 33° SSE
Cosmos 405 Rocket 3.3 22:14:32 10° N 22:17:42 42° NE 22:17:42 42° NE
SL-16 R/B 2.3 22:26:02 48° ESE 22:26:21 48° ESE 22:31:47 10° NE
Envisat 4.4 22:22:47 14° SSW 22:26:41 35° W 22:31:20 10° NNW
SL-19 R/B 4.0 22:22:14 10° NNE 22:27:44 71° ESE 22:29:21 45° S
NOAA 11 4.1 22:26:05 44° SSE 22:27:55 88° ENE 22:33:25 10° NNW
Cosmos 1844 Rocket 4.5 22:27:07 10° N 22:31:03 19° NE 22:32:54 16° ENE
H-2A R/B 3.3 22:29:20 24° SW 22:31:05 34° W 22:34:53 10° NNW
ARGOS 3.1 22:30:18 47° SSE 22:31:55 87° WSW 22:37:22 10° NNW
SL-08 RB Rocket 3.6 22:33:19 68° SSE 22:33:54 85° ENE 22:38:34 10° NNW
CZ-4C R/B 4.0 22:34:14 49° ENE 22:34:14 49° ENE 22:38:20 10° N
Cosmos 1816 Rocket 4.5 22:30:13 10° N 22:36:38 90° NW 22:38:58 43° S
Cosmos 1980 Rocket 2.8 22:34:28 10° SW 22:40:03 57° WNW 22:45:42 10° NNE
Cosmos 2228 2.9 22:39:57 77° SW 22:40:10 80° W 22:44:29 10° N
CZ-4B R/B 3.2 22:35:29 10° NNE 22:40:16 70° ESE 22:40:19 70° ESE
Cosmos 2360 Rocket 3.8 22:43:12 19° ENE 22:43:12 19° ENE 22:45:22 10° NE
Meteor 2-17 Rocket 4.3 22:40:21 50° SSE 22:41:55 72° E 22:47:57 10° NNE
Cosmos 1725 Rocket 4.1 22:39:21 25° SSW 22:43:06 76° W 22:49:24 10° N
H-2A R/B 1.8 22:44:55 66° E 22:45:11 68° ENE 22:50:06 10° N
Lacrosse 5 3.9 22:42:51 10° W 22:46:04 17° WSW 22:47:17 16° SW
GP-B 3.7 22:48:56 10° N 22:52:22 46° NE 22:52:22 46° NE
SPOT 5 4.4 22:51:36 21° SW 22:53:49 30° W 22:58:02 10° NW
USA 215 3.2 22:56:42 54° ESE 22:58:25 89° NNE 23:05:00 10° NW
Okean 3 Rocket 4.4 22:54:14 10° N 22:57:35 41° NE 22:57:35 41° NE
Cosmos 332 Rocket 3.8 23:01:17 75° NNE 23:01:17 75° NNE 23:05:48 10° NNE
BREEZE-M DEB (TANK) 3.1 22:53:36 10° WSW 23:01:33 63° SW 23:01:33 63° SW
Landsat 7 3.8 23:03:27 73° W 23:03:27 73° W 23:08:12 10° NNW
Cosmos 2263 Rocket 2.0 22:58:06 10° NNW 23:03:42 83° WSW 23:04:05 77° S
Cosmos 783 Rocket 4.4 23:04:15 81° ENE 23:04:15 81° ENE 23:09:24 10° NNE
Cosmos 371 Rocket 4.1 23:05:40 42° NE 23:05:40 42° NE 23:08:57 10° NNE
SPOT 1/Viking Rocket 4.4 23:03:18 36° SW 23:04:36 42° W 23:09:33 10° NNW
Meteor 2-5 Rocket 3.7 22:59:05 10° NNW 23:05:03 89° W 23:05:43 72° S
Cosmos 2233 Rocket 4.0 23:05:28 50° SSW 23:07:14 79° W 23:13:31 10° N
Cosmos 1707 4.0 23:04:49 10° N 23:07:22 39° N 23:07:22 39° N
Cosmos 2322 Rocket 2.3 23:11:45 49° SW 23:13:15 74° WNW 23:18:54 10° NNE
Terra 2.1 23:19:13 66° NW 23:19:13 66° NW 23:23:30 10° NNW
Meteor 1-24 Rocket 3.8 23:15:13 10° N 23:21:19 76° ENE 23:21:24 76° E
CZ-4 R/B 4.2 23:17:22 10° N 23:22:03 61° WNW 23:22:03 61° WNW
Cosmos 2034 Rocket 4.2 23:31:14 55° ENE 23:31:14 55° ENE 23:36:41 10° NNE
COSMOS 2428 4.3 23:42:57 23° ENE 23:42:57 23° ENE 23:45:25 10° NE
Cosmos 540 Rocket 4.3 23:43:12 43° W 23:43:49 45° WNW 23:48:46 10° NNE
Lacrosse 4 Rocket 4.0 23:54:19 15° NE 23:54:19 15° NE 23:55:04 10° NE
Cosmos 2278 Rocket 3.3 23:47:55 10° NNW 23:53:03 34° NE 23:53:03 34° NE
Cosmos 1464 Rocket 4.0 23:52:56 75° W 23:53:07 76° W 23:59:30 10° N
